When you browse on this site, cookies collect data to enhance your experience and personalize the content and advertising you see.
Visit our Privacy Policy to learn more. By continuing to use the site, you agree to this use of cookies and data.
  • Em Portugal
  • Lista de países
  • Para 7 dias
  • Temperatura da água
  • Mapa do tempo
  • Widgets de tempo
  • user-avatar
    Iniciar Sessão

    Previsão horária em Engurazovo

    Hoje, 23 Setembro, Segunda-feira

    Tempo Temperatura Precipitação Vento Pressão Humidade
    00:00 0°C° 0.3 mm 7 m/s 734 mmHg 92%
    01:00 +1°C° 0 mm 6 m/s 735 mmHg 92%
    02:00 -1°C° 0 mm 6 m/s 736 mmHg 92%
    03:00 +1°C° 0 mm 5 m/s 737 mmHg 92%
    04:00 +1°C° 0.1 mm 5 m/s 738 mmHg 91%
    05:00 +1°C° 0.1 mm 5 m/s 738 mmHg 90%
    06:00 +1°C° 0.1 mm 6 m/s 739 mmHg 89%
    07:00 +1°C° 0 mm 6 m/s 740 mmHg 86%
    08:00 +1°C° 0 mm 6 m/s 740 mmHg 83%
    09:00 +1°C° 0 mm 6 m/s 741 mmHg 80%
    10:00 +1°C° 0 mm 6 m/s 742 mmHg 82%
    11:00 +1°C° 0 mm 6 m/s 742 mmHg 84%
    12:00 +1°C° 0 mm 6 m/s 742 mmHg 86%
    13:00 +2°C° 0.1 mm 6 m/s 743 mmHg 84%
    14:00 +2°C° 0.1 mm 6 m/s 743 mmHg 83%
    15:00 +3°C° 0.1 mm 6 m/s 743 mmHg 82%
    16:00 +2°C° 0.1 mm 6 m/s 744 mmHg 83%
    17:00 +2°C° 0.1 mm 6 m/s 744 mmHg 83%
    18:00 +2°C° 0.1 mm 5 m/s 744 mmHg 84%
    19:00 +1°C° 0 mm 5 m/s 744 mmHg 85%
    20:00 +1°C° 0 mm 5 m/s 744 mmHg 86%
    21:00 +1°C° 0 mm 5 m/s 745 mmHg 87%
    22:00 +1°C° 0 mm 5 m/s 745 mmHg 88%
    23:00 0°C° 0 mm 5 m/s 745 mmHg 89%

    Amanhã, 24 Setembro, Terça-feira

    Tempo Temperatura Precipitação Vento Pressão Humidade
    00:00 0°C° 0 mm 5 m/s 745 mmHg 90%
    01:00 0°C° 0 mm 4 m/s 746 mmHg 89%
    02:00 0°C° 0 mm 4 m/s 746 mmHg 89%
    03:00 0°C° 0 mm 4 m/s 747 mmHg 88%
    04:00 0°C° 0 mm 4 m/s 747 mmHg 91%
    05:00 0°C° 0 mm 3 m/s 747 mmHg 93%
    06:00 -1°C° 0 mm 3 m/s 747 mmHg 95%
    07:00 0°C° 0 mm 3 m/s 747 mmHg 91%
    08:00 +1°C° 0 mm 3 m/s 747 mmHg 88%
    09:00 +2°C° 0 mm 3 m/s 748 mmHg 84%
    10:00 +3°C° 0 mm 3 m/s 748 mmHg 78%
    11:00 +4°C° 0 mm 4 m/s 748 mmHg 71%
    12:00 +6°C° 0 mm 4 m/s 748 mmHg 65%
    13:00 +6°C° 0.3 mm 4 m/s 748 mmHg 65%
    14:00 +6°C° 0.3 mm 4 m/s 748 mmHg 66%
    15:00 +6°C° 0.3 mm 4 m/s 748 mmHg 66%
    16:00 +5°C° 0.2 mm 3 m/s 748 mmHg 71%
    17:00 +4°C° 0.2 mm 3 m/s 747 mmHg 77%
    18:00 +4°C° 0.2 mm 2 m/s 747 mmHg 83%
    19:00 +3°C° 0 mm 2 m/s 748 mmHg 86%
    20:00 +3°C° 0 mm 2 m/s 748 mmHg 89%
    21:00 +3°C° 0 mm 1 m/s 748 mmHg 92%
    22:00 +2°C° 0 mm 1 m/s 748 mmHg 92%
    23:00 +2°C° 0 mm 1 m/s 748 mmHg 92%

    Depois de amanhã, 25 Setembro, Quarta-feira

    Tempo Temperatura Precipitação Vento Pressão Humidade
    00:00 +1°C° 0 mm 1 m/s 748 mmHg 92%
    01:00 -1°C° 0 mm 2 m/s 748 mmHg 92%
    02:00 -2°C° 0 mm 2 m/s 748 mmHg 92%
    03:00 -2°C° 0 mm 2 m/s 749 mmHg 92%
    04:00 -2°C° 0 mm 2 m/s 749 mmHg 93%
    05:00 -2°C° 0 mm 2 m/s 749 mmHg 93%
    06:00 -2°C° 0 mm 2 m/s 749 mmHg 94%
    07:00 -1°C° 0 mm 2 m/s 749 mmHg 89%
    08:00 +2°C° 0 mm 2 m/s 749 mmHg 83%
    09:00 +3°C° 0 mm 2 m/s 750 mmHg 78%
    10:00 +4°C° 0 mm 2 m/s 750 mmHg 73%
    11:00 +4°C° 0 mm 3 m/s 750 mmHg 68%
    12:00 +5°C° 0 mm 3 m/s 750 mmHg 63%
    13:00 +5°C° 0.1 mm 3 m/s 750 mmHg 62%
    14:00 +7°C° 0.1 mm 3 m/s 750 mmHg 61%
    15:00 +7°C° 0.1 mm 3 m/s 750 mmHg 60%
    16:00 +5°C° 0 mm 3 m/s 750 mmHg 64%
    17:00 +5°C° 0 mm 2 m/s 749 mmHg 69%
    18:00 +4°C° 0 mm 2 m/s 749 mmHg 73%
    19:00 +4°C° 0 mm 2 m/s 749 mmHg 76%
    20:00 +3°C° 0 mm 2 m/s 750 mmHg 79%
    21:00 +3°C° 0 mm 1 m/s 750 mmHg 82%
    22:00 +2°C° 0 mm 2 m/s 750 mmHg 83%
    23:00 +2°C° 0 mm 2 m/s 749 mmHg 85%

    26 Setembro, Quinta-feira

    Tempo Temperatura Precipitação Vento Pressão Humidade
    00:00 +2°C° 0 mm 2 m/s 749 mmHg 86%
    01:00 +1°C° 0 mm 2 m/s 749 mmHg 87%
    02:00 +1°C° 0 mm 2 m/s 749 mmHg 87%
    03:00 +1°C° 0 mm 2 m/s 749 mmHg 88%
    04:00 +1°C° 0 mm 1 m/s 750 mmHg 89%
    05:00 +1°C° 0 mm 1 m/s 750 mmHg 90%
    06:00 0°C° 0 mm 1 m/s 750 mmHg 92%
    07:00 +1°C° 0 mm 2 m/s 750 mmHg 84%
    08:00 +3°C° 0 mm 2 m/s 750 mmHg 77%
    09:00 +4°C° 0 mm 2 m/s 750 mmHg 69%
    10:00 +5°C° 0 mm 2 m/s 750 mmHg 65%
    11:00 +7°C° 0 mm 3 m/s 750 mmHg 62%
    12:00 +8°C° 0 mm 3 m/s 750 mmHg 58%
    13:00 +8°C° 0 mm 3 m/s 750 mmHg 58%
    14:00 +8°C° 0 mm 3 m/s 750 mmHg 59%
    15:00 +7°C° 0 mm 4 m/s 750 mmHg 60%
    16:00 +7°C° 0 mm 3 m/s 749 mmHg 66%
    17:00 +6°C° 0 mm 2 m/s 749 mmHg 72%
    18:00 +5°C° 0 mm 1 m/s 749 mmHg 78%
    19:00 +5°C° 0 mm 1 m/s 749 mmHg 79%
    20:00 +4°C° 0 mm 1 m/s 749 mmHg 79%
    21:00 +4°C° 0 mm 1 m/s 749 mmHg 80%
    22:00 +2°C° 0 mm 2 m/s 749 mmHg 83%
    23:00 +2°C° 0 mm 2 m/s 749 mmHg 85%

    27 Setembro, Sexta-feira

    Tempo Temperatura Precipitação Vento Pressão Humidade
    00:00 +2°C° 0 mm 2 m/s 749 mmHg 87%
    01:00 +1°C° 0 mm 2 m/s 749 mmHg 87%
    02:00 +1°C° 0 mm 2 m/s 749 mmHg 87%
    03:00 +1°C° 0 mm 2 m/s 749 mmHg 87%
    04:00 0°C° 0 mm 3 m/s 749 mmHg 88%
    05:00 0°C° 0 mm 3 m/s 749 mmHg 88%
    06:00 0°C° 0 mm 3 m/s 749 mmHg 88%
    07:00 +1°C° 0 mm 3 m/s 749 mmHg 83%
    08:00 +3°C° 0 mm 3 m/s 749 mmHg 78%
    09:00 +5°C° 0 mm 4 m/s 749 mmHg 73%
    10:00 +6°C° 0 mm 4 m/s 749 mmHg 70%
    11:00 +7°C° 0 mm 4 m/s 749 mmHg 68%
    12:00 +8°C° 0 mm 5 m/s 749 mmHg 65%
    13:00 +8°C° 0 mm 4 m/s 748 mmHg 67%
    14:00 +8°C° 0 mm 4 m/s 748 mmHg 68%
    15:00 +8°C° 0 mm 3 m/s 748 mmHg 69%
    16:00 +8°C° 0 mm 3 m/s 748 mmHg 72%
    17:00 +7°C° 0 mm 3 m/s 748 mmHg 74%
    18:00 +7°C° 0 mm 3 m/s 748 mmHg 76%
    19:00 +7°C° 0.1 mm 2 m/s 748 mmHg 80%
    20:00 +6°C° 0.1 mm 2 m/s 749 mmHg 83%
    21:00 +6°C° 0.1 mm 2 m/s 749 mmHg 86%
    22:00 +6°C° 0.1 mm 2 m/s 749 mmHg 89%
    23:00 +6°C° 0.1 mm 2 m/s 749 mmHg 91%

    28 Setembro, Sábado

    Tempo Temperatura Precipitação Vento Pressão Humidade
    00:00 +6°C° 0.1 mm 2 m/s 750 mmHg 94%
    01:00 +7°C° 0 mm 1 m/s 750 mmHg 93%
    02:00 +6°C° 0 mm 1 m/s 750 mmHg 93%
    03:00 +6°C° 0 mm 1 m/s 750 mmHg 92%
    04:00 +6°C° 0 mm 1 m/s 750 mmHg 92%
    05:00 +6°C° 0 mm 1 m/s 750 mmHg 92%
    06:00 +5°C° 0 mm 1 m/s 751 mmHg 92%
    07:00 +6°C° 0 mm 1 m/s 751 mmHg 88%
    08:00 +7°C° 0 mm 1 m/s 751 mmHg 85%
    09:00 +7°C° 0 mm 1 m/s 751 mmHg 81%
    10:00 +8°C° 0 mm 1 m/s 752 mmHg 79%
    11:00 +8°C° 0 mm 1 m/s 752 mmHg 77%
    12:00 +9°C° 0 mm 1 m/s 752 mmHg 74%
    13:00 +9°C° 0 mm 1 m/s 752 mmHg 74%
    14:00 +8°C° 0 mm 2 m/s 752 mmHg 74%
    15:00 +8°C° 0 mm 2 m/s 752 mmHg 75%
    16:00 +7°C° 0 mm 2 m/s 752 mmHg 77%
    17:00 +7°C° 0 mm 2 m/s 752 mmHg 80%
    18:00 +6°C° 0 mm 2 m/s 752 mmHg 83%
    19:00 +7°C° 0 mm 1 m/s 752 mmHg 83%
    20:00 +6°C° 0 mm 1 m/s 752 mmHg 83%
    21:00 +6°C° 0 mm 1 m/s 753 mmHg 84%
    22:00 +6°C° 0 mm 1 m/s 753 mmHg 84%
    23:00 +6°C° 0 mm 1 m/s 753 mmHg 83%
    Mostrar mais